This is the latest recevied weather packets stored in our database for station/object KM4CNW. If no packets are shown the sender has not sent any weather packets the latest 10 day(s).
| Time | Temp. | Humidity | Pressure | Rain* | Wind** | Luminosity | Snow |
|---|---|---|---|---|---|---|---|
| 1777947634 | 18.33° C | 40% | 1009 hPa | 0 mm | - | 0 W/m² | - |
| 1777947330 | 18.33° C | 39% | 1009 hPa | 0 mm | - | 0 W/m² | - |
| 1777947027 | 18.89° C | 39% | 1009.1 hPa | 0 mm | - | 0 W/m² | - |
| 1777946726 | 18.89° C | 38% | 1009 hPa | 0 mm | - | 0 W/m² | - |
| 1777946424 | 18.89° C | 38% | 1009 hPa | 0 mm | - | 0 W/m² | - |
| 1777946121 | 18.89° C | 38% | 1008.9 hPa | 0 mm | - | 0 W/m² | - |
| 1777945818 | 18.89° C | 38% | 1008.8 hPa | 0 mm | - | 0 W/m² | - |
| 1777945515 | 19.44° C | 38% | 1009 hPa | 0 mm | - | 0 W/m² | - |
| 1777945212 | 19.44° C | 37% | 1009.1 hPa | 0 mm | - | 0 W/m² | - |
| 1777944909 | 19.44° C | 37% | 1009 hPa | 0 mm | - | 0 W/m² | - |
| 1777944606 | 19.44° C | 37% | 1008.7 hPa | 0 mm | - | 0 W/m² | - |
| 1777944304 | 19.44° C | 37% | 1008.6 hPa | 0 mm | - | 0 W/m² | - |
| 1777944001 | 18.89° C | 38% | 1008.6 hPa | 0 mm | - | 0 W/m² | - |
| 1777943696 | 18.89° C | 39% | 1008.6 hPa | 0 mm | - | 0 W/m² | - |
| 1777943394 | 18.33° C | 40% | 1008.3 hPa | 0 mm | - | 0 W/m² | - |
| 1777943089 | 17.22° C | 43% | 1008.3 hPa | 0 mm | - | 0 W/m² | - |
| 1777942785 | 17.22° C | 48% | 1008.5 hPa | 0 mm | - | 0 W/m² | - |
| 1777942482 | 17.78° C | 47% | 1008.3 hPa | 0 mm | - | 0 W/m² | - |
| 1777942180 | 17.78° C | 44% | 1008.4 hPa | 0 mm | - | 0 W/m² | - |
| 1777941876 | 17.78° C | 44% | 1008.2 hPa | 0 mm | - | 0 W/m² | - |
| 1777941574 | 18.33° C | 44% | 1008.1 hPa | 0 mm | - | 0 W/m² | - |
| 1777941271 | 18.33° C | 43% | 1008.1 hPa | 0 mm | - | 0 W/m² | - |
| 1777940967 | 18.89° C | 42% | 1008 hPa | 0 mm | - | 0 W/m² | - |
| 1777940663 | 19.44° C | 40% | 1008 hPa | 0 mm | - | 0 W/m² | - |
| 1777940361 | 20° C | 40% | 1008.1 hPa | 0 mm | - | 1 W/m² | - |
* Rain latest hour (hover to see other rain measurements)
** Current wind speed in m/s (hover to see current wind gust speed)